Total_Precipitation_Accumulation
0.00 0.02 0.02 0.05 0.23 0.10 0.00 0.00 0.00 0.00 0.00 0.00 0.00 0.00 0.00 0.01 0.07 0.26 0.05 0.00 0.00 0.00 0.00 0.03 0.05 0.05 0.05 0.04 0.03 0.05 0.07 0.06 0.05 0.08 0.06 0.06 0.05 0.04 0.05 0.05 0.06 0.06 0.07 0.10 0.16 0.26 0.30 0.31 0.39
0.00 0.02 0.03 0.10 0.13 0.02 0.00 0.00 0.00 0.00 0.00 0.00 0.00 0.00 0.00 0.00 0.00 0.01 0.00 0.00 0.00 0.00 0.00 0.01 0.03 0.07 0.09 0.06 0.05 0.07 0.08 0.06 0.06 0.08 0.07 0.07 0.05 0.04 0.04 0.04 0.04 0.05 0.06 0.07 0.12 0.23 0.31 0.33 0.35
0.00 0.01 0.05 0.11 0.03 0.00 0.00 0.00 0.00 0.00 0.00 0.00 0.00 0.00 0.00 0.00 0.00 0.00 0.01 0.01 0.00 0.01 0.01 0.04 0.07 0.14 0.17 0.11 0.10 0.14 0.11 0.09 0.08 0.07 0.07 0.09 0.06 0.07 0.04 0.02 0.04 0.04 0.06 0.07 0.09 0.16 0.26 0.31 0.34
0.00 0.01 0.05 0.04 0.00 0.00 0.00 0.00 0.00 0.00 0.00 0.00 0.00 0.00 0.00 0.00 0.00 0.00 0.01 0.01 0.00 0.02 0.04 0.09 0.13 0.20 0.23 0.13 0.15 0.22 0.16 0.13 0.09 0.05 0.06 0.08 0.06 0.06 0.02 0.02 0.04 0.04 0.04 0.06 0.07 0.13 0.19 0.25 0.31
0.01 0.02 0.04 0.03 0.01 0.00 0.00 0.00 0.01 0.01 0.01 0.00 0.00 0.00 0.00 0.00 0.00 0.00 0.00 0.00 0.01 0.02 0.05 0.10 0.17 0.19 0.20 0.18 0.23 0.31 0.25 0.19 0.10 0.05 0.06 0.06 0.05 0.05 0.03 0.04 0.03 0.03 0.03 0.03 0.04 0.07 0.11 0.16 0.21
0.02 0.04 0.08 0.07 0.05 0.02 0.02 0.01 0.01 0.02 0.01 0.00 0.00 0.00 0.01 0.01 0.01 0.01 0.01 0.02 0.02 0.02 0.03 0.10 0.14 0.14 0.18 0.21 0.28 0.36 0.36 0.25 0.12 0.06 0.07 0.05 0.05 0.04 0.04 0.05 0.04 0.03 0.01 0.01 0.02 0.04 0.06 0.07 0.10
0.01 0.05 0.10 0.06 0.05 0.04 0.02 0.01 0.01 0.01 0.00 0.00 0.00 0.01 0.02 0.01 0.02 0.02 0.05 0.09 0.07 0.04 0.04 0.09 0.11 0.10 0.15 0.24 0.26 0.39 0.50 0.34 0.17 0.10 0.10 0.08 0.05 0.04 0.04 0.03 0.02 0.01 0.01 0.00 0.01 0.02 0.03 0.04 0.04
0.01 0.02 0.06 0.06 0.06 0.09 0.03 0.01 0.02 0.02 0.01 0.01 0.01 0.02 0.06 0.05 0.03 0.03 0.08 0.09 0.05 0.04 0.02 0.04 0.08 0.12 0.20 0.26 0.35 0.42 0.70 0.61 0.29 0.18 0.12 0.10 0.05 0.04 0.04 0.02 0.01 0.01 0.01 0.00 0.00 0.00 0.01 0.02 0.03
0.01 0.04 0.13 0.15 0.08 0.10 0.04 0.04 0.05 0.05 0.04 0.03 0.03 0.03 0.05 0.06 0.06 0.07 0.09 0.07 0.05 0.02 0.02 0.03 0.06 0.08 0.13 0.20 0.37 0.51 0.71 0.77 0.47 0.28 0.16 0.10 0.08 0.14 0.12 0.05 0.02 0.01 0.00 0.00 0.00 0.01 0.01 0.01 0.03
0.02 0.06 0.16 0.12 0.09 0.07 0.05 0.06 0.06 0.07 0.06 0.05 0.07 0.08 0.07 0.09 0.15 0.17 0.19 0.21 0.18 0.14 0.08 0.06 0.06 0.07 0.08 0.10 0.26 0.43 0.51 0.70 0.49 0.51 0.40 0.27 0.33 0.34 0.19 0.12 0.05 0.02 0.00 0.00 0.00 0.00 0.01 0.00 0.01
0.03 0.03 0.09 0.16 0.13 0.06 0.04 0.05 0.05 0.06 0.08 0.08 0.09 0.13 0.17 0.19 0.24 0.26 0.27 0.29 0.30 0.31 0.26 0.17 0.13 0.11 0.13 0.21 0.29 0.41 0.52 0.63 0.66 0.69 0.63 0.64 0.58 0.33 0.14 0.17 0.13 0.04 0.01 0.00 0.00 0.00 0.00 0.00 0.00
0.05 0.03 0.03 0.05 0.06 0.04 0.04 0.04 0.04 0.05 0.05 0.06 0.09 0.13 0.21 0.28 0.30 0.30 0.32 0.35 0.36 0.38 0.44 0.36 0.24 0.21 0.20 0.25 0.34 0.44 0.54 0.62 0.63 0.48 0.44 0.53 0.54 0.34 0.17 0.19 0.18 0.11 0.06 0.02 0.01 0.00 0.00 0.00 0.00
0.05 0.07 0.06 0.06 0.06 0.08 0.06 0.05 0.06 0.06 0.05 0.06 0.10 0.18 0.28 0.37 0.39 0.38 0.35 0.37 0.38 0.43 0.50 0.52 0.42 0.33 0.32 0.34 0.38 0.37 0.58 0.70 0.77 0.62 0.37 0.46 0.46 0.35 0.24 0.13 0.12 0.09 0.06 0.02 0.01 0.00 0.00 0.00 0.01
0.05 0.08 0.07 0.09 0.09 0.09 0.09 0.09 0.10 0.10 0.10 0.08 0.12 0.20 0.29 0.38 0.42 0.44 0.40 0.38 0.35 0.39 0.45 0.50 0.53 0.51 0.47 0.45 0.45 0.42 0.44 0.51 0.57 0.44 0.28 0.40 0.45 0.35 0.31 0.18 0.13 0.09 0.05 0.03 0.01 0.00 0.00 0.01 0.01
0.02 0.04 0.05 0.04 0.05 0.07 0.11 0.13 0.12 0.11 0.12 0.13 0.11 0.16 0.23 0.29 0.33 0.37 0.37 0.35 0.34 0.39 0.41 0.46 0.53 0.60 0.61 0.61 0.69 0.61 0.55 0.58 0.54 0.45 0.36 0.37 0.42 0.38 0.37 0.29 0.20 0.14 0.10 0.07 0.02 0.00 0.00 0.01 0.01
0.00 0.02 0.06 0.04 0.07 0.11 0.13 0.13 0.10 0.12 0.11 0.11 0.09 0.11 0.15 0.20 0.25 0.29 0.33 0.35 0.35 0.37 0.37 0.39 0.43 0.48 0.53 0.60 0.67 0.72 0.71 0.73 0.67 0.65 0.53 0.44 0.50 0.54 0.52 0.43 0.31 0.24 0.24 0.19 0.10 0.02 0.01 0.00 0.00
0.00 0.02 0.07 0.07 0.08 0.09 0.10 0.11 0.08 0.08 0.07 0.05 0.05 0.05 0.07 0.10 0.16 0.20 0.24 0.30 0.34 0.35 0.32 0.31 0.32 0.32 0.35 0.42 0.53 0.65 0.70 0.77 0.82 0.81 0.74 0.69 0.67 0.65 0.65 0.64 0.57 0.52 0.46 0.34 0.20 0.09 0.03 0.01 0.01
0.02 0.02 0.03 0.04 0.05 0.05 0.07 0.09 0.09 0.05 0.03 0.02 0.03 0.03 0.03 0.03 0.06 0.10 0.15 0.23 0.27 0.29 0.30 0.30 0.31 0.30 0.26 0.30 0.43 0.53 0.58 0.64 0.78 0.84 0.88 1.13 1.19 0.96 0.85 0.85 0.77 0.71 0.66 0.56 0.42 0.28 0.15 0.07 0.04
0.02 0.02 0.01 0.02 0.01 0.01 0.02 0.03 0.04 0.02 0.01 0.01 0.01 0.01 0.02 0.01 0.01 0.02 0.03 0.07 0.14 0.15 0.14 0.18 0.24 0.30 0.28 0.24 0.30 0.41 0.49 0.60 0.71 0.87 0.94 1.15 1.21 1.12 1.09 1.05 0.98 0.87 0.80 0.75 0.71 0.63 0.45 0.26 0.11
0.02 0.01 0.01 0.01 0.01 0.01 0.01 0.01 0.03 0.02 0.02 0.01 0.01 0.01 0.01 0.01 0.01 0.01 0.01 0.02 0.02 0.05 0.07 0.10 0.15 0.23 0.31 0.33 0.37 0.50 0.67 0.78 0.85 0.98 1.04 1.15 1.13 1.09 1.01 1.12 1.19 1.09 1.05 1.04 1.04 0.98 0.84 0.56 0.30
0.00 0.00 0.00 0.00 0.00 0.00 0.00 0.01 0.02 0.03 0.03 0.02 0.02 0.03 0.03 0.03 0.02 0.02 0.01 0.02 0.02 0.03 0.05 0.10 0.19 0.32 0.48 0.64 0.84 1.08 1.35 1.45 1.34 1.20 1.26 1.38 1.43 1.36 1.26 1.30 1.39 1.27 1.23 1.21 1.17 1.08 1.15 1.05 0.73
0.00 0.00 0.00 0.01 0.01 0.00 0.00 0.01 0.02 0.05 0.06 0.07 0.08 0.09 0.09 0.07 0.06 0.06 0.04 0.05 0.07 0.11 0.17 0.28 0.40 0.56 0.72 0.92 1.14 1.38 1.61 1.76 1.78 1.80 1.82 1.78 1.71 1.57 1.44 1.40 1.41 1.38 1.35 1.24 1.13 1.13 1.28 1.47 1.29
0.00 0.00 0.00 0.00 0.01 0.01 0.00 0.01 0.05 0.11 0.17 0.22 0.25 0.25 0.23 0.19 0.19 0.18 0.16 0.15 0.18 0.28 0.41 0.52 0.75 0.92 1.05 1.10 1.20 1.41 1.52 1.58 1.68 1.82 1.86 1.82 1.70 1.57 1.43 1.35 1.32 1.34 1.35 1.30 1.30 1.34 1.42 1.52 1.61
0.00 0.00 0.00 0.00 0.01 0.01 0.00 0.04 0.14 0.24 0.32 0.40 0.40 0.36 0.33 0.26 0.23 0.26 0.29 0.30 0.35 0.57 0.81 0.95 1.06 1.16 1.14 1.12 1.13 1.26 1.40 1.48 1.54 1.65 1.70 1.61 1.45 1.39 1.36 1.32 1.24 1.16 1.15 1.17 1.27 1.43 1.43 1.45 1.52
0.00 0.00 0.01 0.01 0.02 0.03 0.03 0.11 0.26 0.28 0.27 0.31 0.34 0.33 0.29 0.22 0.19 0.23 0.33 0.45 0.65 0.90 1.13 1.28 1.28 1.18 1.03 1.01 1.07 1.12 1.26 1.40 1.42 1.40 1.40 1.32 1.22 1.18 1.19 1.18 1.12 0.99 0.93 0.97 1.10 1.23 1.21 1.20 1.22
0.00 0.00 0.03 0.04 0.03 0.06 0.11 0.27 0.38 0.30 0.21 0.17 0.18 0.18 0.20 0.24 0.30 0.32 0.38 0.57 0.85 1.12 1.37 1.64 1.61 1.37 1.15 1.10 1.15 1.16 1.23 1.28 1.23 1.14 1.12 1.09 1.03 0.98 0.90 0.90 0.89 0.87 0.84 0.82 0.87 0.92 0.91 0.92 0.96
0.00 0.01 0.03 0.08 0.05 0.06 0.12 0.26 0.29 0.20 0.15 0.13 0.15 0.18 0.24 0.31 0.41 0.49 0.61 0.71 0.91 1.14 1.47 1.76 1.81 1.61 1.45 1.36 1.30 1.29 1.18 1.08 0.97 0.89 0.84 0.83 0.78 0.73 0.69 0.71 0.75 0.79 0.71 0.64 0.65 0.67 0.68 0.73 0.74
0.01 0.02 0.05 0.13 0.13 0.12 0.15 0.24 0.20 0.11 0.10 0.13 0.19 0.24 0.29 0.37 0.43 0.58 0.84 1.05 1.27 1.23 1.37 1.60 1.54 1.48 1.45 1.47 1.45 1.35 1.18 1.04 0.98 0.87 0.82 0.74 0.72 0.67 0.67 0.66 0.59 0.59 0.58 0.57 0.59 0.60 0.61 0.59 0.60
0.03 0.05 0.06 0.12 0.17 0.20 0.28 0.34 0.22 0.18 0.20 0.26 0.32 0.35 0.38 0.46 0.51 0.65 0.82 0.97 1.16 1.27 1.29 1.33 1.32 1.33 1.29 1.22 1.17 1.05 0.85 0.74 0.74 0.74 0.68 0.59 0.59 0.55 0.54 0.50 0.49 0.55 0.55 0.51 0.55 0.55 0.53 0.52 0.52
0.10 0.12 0.12 0.20 0.26 0.31 0.45 0.50 0.33 0.33 0.38 0.45 0.52 0.54 0.58 0.59 0.62 0.72 0.80 0.95 1.04 1.05 1.09 1.17 1.10 1.09 1.04 0.93 0.83 0.72 0.57 0.51 0.56 0.56 0.50 0.41 0.42 0.40 0.46 0.47 0.44 0.51 0.61 0.62 0.61 0.57 0.50 0.45 0.42